Preview of NWS' New Version of Forecast
This preview is not operational and should not be used for support decisions.

Terminal Aerodrome Forecast (TAF)

Issued by National Weather Service (NWS)

                            
000
FTUS42 KKEY 232325
TAFEYW
TAF
KEYW 232325Z 2400/2424 13005KT P6SM FEW020=